Probability
9 9 7 4 2 0 0 1 1 1 2 2 1 1 1 2 4 4 4 4 4 2 1 1 2 2 2 1 1 3 4 3 1 0 0 0 0 0 0 0 0 0 0
9 9 7 5 3 2 2 2 2 2 1 1 1 2 2 3 5 6 5 5 4 3 2 2 3 3 2 1 1 2 2 2 1 0 0 0 0 0 0 0 0 0 0
6 6 6 6 5 5 5 5 5 3 2 2 3 3 3 4 5 6 6 5 5 4 3 3 3 3 3 3 3 1 0 1 1 0 0 0 0 0 0 0 0 0 0
4 4 5 6 6 6 7 7 7 5 3 3 3 3 3 4 4 5 6 6 5 5 4 3 3 3 4 5 3 2 1 1 1 0 0 0 0 0 0 0 0 0 0
4 6 7 6 5 5 6 7 7 5 3 3 4 3 4 4 4 4 6 7 7 5 4 4 3 2 3 4 3 3 2 2 2 1 0 0 0 0 0 0 0 0 0
6 8 10 8 7 6 6 7 7 6 5 6 5 4 4 4 4 4 6 8 8 7 6 5 3 3 3 3 3 3 3 3 2 1 0 0 0 0 0 0 0 0 0
9 11 11 10 10 9 8 8 9 9 9 9 8 7 6 5 4 4 5 8 9 9 8 7 5 4 3 3 3 3 2 2 3 2 1 0 0 0 0 0 0 0 0
13 12 12 11 11 11 9 9 10 12 13 12 11 10 9 7 5 3 4 6 8 9 9 8 7 6 4 3 3 3 3 2 2 2 1 0 0 0 0 0 0 0 0
13 13 13 12 11 10 9 9 10 12 13 13 12 11 9 7 5 2 3 5 7 8 8 9 8 7 6 4 4 4 4 3 2 1 0 0 0 0 0 0 1 1 1
11 11 12 12 11 10 9 9 10 11 12 12 10 8 7 6 5 2 2 5 6 7 7 7 7 7 6 5 5 6 5 4 2 1 0 0 0 0 0 0 1 2 2
9 8 8 8 9 9 8 8 8 9 10 9 8 6 5 6 6 3 3 5 7 7 7 7 6 5 5 4 5 5 5 4 2 1 0 0 0 0 0 0 0 1 2
6 5 5 5 6 6 5 5 5 6 7 7 6 5 5 6 6 4 3 4 5 7 8 7 5 3 2 2 2 2 2 1 1 0 0 0 0 0 0 0 0 1 2
4 4 4 4 5 5 5 5 5 5 5 6 7 6 6 5 5 4 3 2 3 4 6 4 2 1 1 0 0 0 0 0 0 0 0 0 1 1 0 1 1 1 1
5 6 6 6 6 6 6 7 7 7 7 7 7 6 6 6 5 4 3 2 1 2 2 2 1 0 0 0 0 0 0 0 0 0 0 0 1 1 1 2 2 1 1
5 7 8 7 6 6 6 6 7 7 7 6 5 4 4 4 4 3 2 2 2 1 1 1 2 1 1 0 0 0 0 0 0 0 0 0 1 1 1 1 1 1 0
6 8 9 8 6 6 6 5 4 4 3 2 2 1 1 1 1 1 1 1 1 1 1 2 3 3 2 1 1 1 0 0 0 0 0 0 0 0 0 0 0 0 0
6 8 8 7 6 6 6 5 4 2 0 0 0 0 0 0 0 0 0 0 0 0 1 2 3 3 3 2 1 1 1 0 0 0 0 0 0 0 0 0 0 0 0
8 8 8 7 5 5 5 5 4 2 0 0 1 1 0 0 0 0 0 0 0 1 2 3 3 3 3 2 0 0 0 0 0 0 0 0 0 0 0 0 0 0 0
9 9 9 8 6 4 3 3 3 1 0 1 2 2 1 0 0 0 0 0 0 1 2 3 3 3 3 2 1 1 0 0 1 1 1 1 1 1 1 0 0 0 0
10 10 10 9 7 4 2 1 1 0 1 2 3 3 2 1 1 1 0 0 0 1 3 3 3 3 3 3 3 2 1 1 2 2 2 2 1 1 1 0 0 0 0
9 9 10 9 7 4 2 1 1 1 2 3 3 3 2 2 2 2 2 2 2 2 3 3 3 3 3 3 3 3 3 3 3 3 2 2 1 1 1 0 0 0 0
8 9 9 9 6 4 3 3 2 2 3 3 3 2 1 1 2 3 3 3 3 3 3 3 3 3 3 3 3 3 3 3 3 2 1 1 1 0 0 0 0 0 0
7 7 8 8 6 4 3 3 3 3 4 4 3 2 0 0 1 1 2 2 3 3 3 3 2 2 2 2 2 2 2 2 1 1 0 0 0 0 0 0 0 0 0
5 6 6 7 6 5 4 3 3 3 4 4 3 2 1 0 0 0 0 1 2 2 2 1 1 1 1 1 1 1 1 1 0 0 0 0 0 0 0 0 0 0 0
2 3 4 5 6 6 5 4 3 3 3 4 3 3 2 1 1 0 0 0 1 1 1 0 0 0 0 0 0 0 0 0 0 0 0 0 0 0 0 0 0 0 0
0 1 2 4 6 6 6 4 3 3 3 3 3 3 3 2 2 1 0 0 0 0 0 0 0 0 0 0 0 0 0 0 0 0 0 0 0 0 0 0 0 0 0
Wind_Speed
5 4 3 3 3 3 3 3 3 2 2 2 2 2 2 2 1 1 2 1 1 1 1 2 2 2 2 1 2 2 2 3 3 3 2 2 2 2 2 2 2 2 3
4 4 4 3 3 3 3 3 3 2 2 2 2 2 2 2 2 2 2 2 2 2 2 2 3 2 2 2 2 2 2 3 3 4 2 2 2 3 2 3 2 2 3
4 4 3 3 3 3 3 3 3 3 2 2 2 2 3 3 3 3 3 2 2 2 2 2 3 2 3 2 2 2 2 2 3 3 3 2 2 2 2 2 3 2 3
4 4 4 4 4 4 3 3 2 2 2 2 2 2 3 3 3 2 2 2 2 2 2 2 3 3 3 3 2 3 2 2 2 3 3 2 2 2 2 2 2 2 3
4 4 4 4 3 3 2 2 2 2 2 2 2 2 2 2 2 2 2 2 2 2 2 2 3 3 3 2 2 2 2 2 2 2 2 2 2 2 2 2 3 3 3
4 4 3 3 3 3 2 2 2 1 1 1 2 2 2 2 2 2 2 2 2 2 2 2 3 3 3 4 4 3 3 3 3 2 3 3 4 3 2 3 2 2 3
3 3 2 2 2 2 2 2 2 2 1 1 2 2 2 3 3 2 2 2 2 2 2 2 3 3 3 3 4 4 4 4 4 4 4 5 4 4 3 3 3 4 4
2 2 2 2 3 3 2 2 2 2 1 2 2 2 2 3 3 2 2 1 2 2 3 3 3 4 3 2 2 3 3 4 4 3 4 5 5 4 4 4 4 4 4
2 2 3 3 3 3 3 3 2 2 2 2 2 2 2 3 3 2 1 1 2 3 3 3 3 4 5 3 2 3 4 4 4 4 5 5 6 5 4 2 2 2 3
3 3 3 3 3 3 3 3 2 2 2 2 2 2 2 3 3 2 1 1 2 2 3 3 4 4 5 3 3 3 4 5 4 4 4 4 3 3 3 4 4 3 3
1 1 1 2 2 2 2 1 1 1 1 1 1 2 2 3 3 2 2 1 2 2 2 3 3 5 5 5 4 4 5 5 3 3 3 4 3 2 2 3 3 3 3
1 1 1 0 1 1 1 1 1 1 1 1 1 2 2 2 3 3 2 2 2 2 3 3 3 5 5 4 3 4 4 3 2 2 2 3 3 4 3 3 4 4 5
2 1 0 0 0 1 2 2 1 1 1 1 1 2 3 2 3 3 3 3 3 2 3 4 5 4 4 3 3 3 2 2 2 3 4 4 4 4 4 3 3 3 4
1 1 1 1 1 0 1 2 2 2 2 2 2 3 3 2 2 2 2 2 2 2 3 3 3 3 3 3 3 2 1 2 2 4 4 4 3 3 3 2 3 2 3
1 1 1 1 1 1 1 2 3 4 4 4 3 3 3 3 4 4 2 2 2 2 2 1 2 2 2 3 3 3 2 2 2 3 3 4 4 3 3 3 2 3 3
1 1 1 1 1 1 1 1 2 2 3 4 4 4 3 5 4 3 3 3 3 2 0 1 2 2 2 3 3 3 3 3 3 3 3 4 4 4 4 3 3 3 4
2 2 1 1 2 2 2 2 2 2 2 2 4 4 4 4 4 3 2 2 1 1 1 2 3 3 3 3 3 3 3 3 3 3 3 4 4 4 4 4 4 3 4
2 2 2 2 2 2 2 2 2 2 2 2 3 4 4 4 4 3 2 1 1 1 2 3 3 3 3 3 3 3 3 3 3 3 3 3 3 4 4 4 4 4 4
2 2 2 2 2 2 2 2 2 2 3 2 2 2 3 2 2 2 2 1 2 3 3 3 3 3 3 3 3 3 3 3 3 3 3 3 3 3 4 4 4 5 4
2 3 2 2 2 2 2 2 2 3 3 3 3 2 1 0 1 1 1 2 3 3 3 3 3 3 3 3 3 3 3 3 3 3 3 3 3 3 4 5 4 4 4
2 2 2 2 2 2 3 3 3 3 3 3 3 3 3 2 2 3 3 3 3 4 3 3 3 3 3 3 2 3 3 3 3 3 3 3 4 4 4 4 4 4 4
1 2 2 2 2 2 3 3 3 3 3 4 3 2 4 3 3 3 3 3 3 3 3 2 3 3 3 2 2 3 3 4 4 4 3 3 4 4 4 4 4 3 3
1 2 2 2 2 3 3 2 2 3 3 3 3 2 2 3 3 3 3 3 3 3 2 2 3 3 2 2 2 3 3 4 4 4 4 4 4 4 3 4 4 4 4
1 2 2 2 2 2 2 2 3 3 3 3 3 3 3 3 3 3 3 3 3 3 2 2 3 4 4 3 2 3 3 4 4 4 5 4 4 4 4 4 4 4 4
1 2 2 2 3 3 3 3 3 3 3 3 3 3 3 3 3 3 3 3 3 3 3 3 3 3 4 4 3 3 3 4 4 3 3 3 4 4 4 4 4 4 3
2 2 3 2 3 3 2 2 3 3 3 3 3 3 3 3 2 2 2 2 2 3 3 3 3 4 4 3 3 3 2 3 3 3 3 3 3 3 4 3 4 3 3
Wind_Direction
177 175 171 171 166 169 183 196 199 206 204 208 218 230 245 257 250 218 226 220 222 257 274 267 277 281 275 274 244 224 222 216 243 269 259 277 270 285 298 285 271 266 268
178 169 174 171 166 182 201 208 203 208 215 216 217 224 236 244 239 225 233 226 223 246 264 269 280 281 279 276 259 246 237 223 227 261 273 265 262 269 276 276 285 281 275
157 160 167 178 188 199 208 211 209 212 224 229 223 232 242 243 237 234 228 229 231 240 250 257 270 271 276 273 263 257 252 244 231 244 268 263 268 273 284 285 288 287 282
152 161 178 199 207 209 206 208 216 221 224 235 240 246 248 242 237 238 234 230 236 245 253 259 263 256 259 263 258 256 255 257 250 248 261 268 272 276 264 280 293 289 286
165 176 189 197 196 192 193 206 212 221 232 240 243 256 263 246 242 239 233 232 237 257 273 274 270 277 282 275 275 261 250 252 258 260 266 270 273 269 265 266 276 291 278
173 189 192 181 184 193 192 194 209 223 235 242 255 257 267 273 283 248 221 221 228 243 270 289 288 288 299 301 297 284 259 245 247 248 261 262 266 260 260 252 259 274 278
181 188 187 184 186 203 200 191 219 231 234 253 273 275 278 288 306 295 253 212 231 240 251 275 293 304 300 289 298 306 295 281 254 236 247 255 257 246 242 253 249 249 258
184 195 187 183 193 196 189 193 233 241 234 243 256 269 275 291 309 296 275 213 244 257 255 253 266 285 289 287 287 302 296 286 274 258 246 256 258 250 233 238 252 266 270
194 208 208 197 194 193 196 200 214 219 242 254 260 262 265 285 301 286 238 228 253 271 275 273 269 276 292 296 284 293 301 301 293 287 275 272 270 263 247 231 236 250 273
216 216 209 196 191 194 203 209 216 211 230 247 267 273 265 277 293 283 224 215 251 278 294 293 285 282 289 283 263 268 282 290 299 301 300 303 289 272 249 228 230 239 258
229 167 171 183 190 195 203 216 207 200 213 252 289 305 299 292 301 287 238 209 236 261 277 288 290 294 287 278 263 253 262 273 281 286 293 299 300 290 274 249 233 227 238
101 106 119 209 218 172 170 201 183 175 199 248 275 297 298 295 296 284 261 238 235 240 260 273 283 296 294 290 279 277 282 289 286 292 295 294 294 293 291 280 256 242 240
109 125 161 205 267 187 185 188 187 200 212 236 248 267 286 295 301 300 291 283 268 255 272 280 295 301 298 292 294 297 299 295 290 286 283 281 281 283 288 290 277 257 258
133 166 181 185 235 266 228 207 204 210 220 228 242 254 271 283 285 291 289 289 293 285 293 303 309 312 313 311 316 315 302 280 270 273 281 286 293 291 284 284 286 286 276
158 185 201 215 224 240 251 241 230 224 217 218 228 231 238 265 268 253 244 267 270 274 300 315 327 333 333 331 327 323 323 312 287 282 284 290 295 293 289 290 277 275 263
189 222 233 238 237 233 250 304 307 265 248 233 229 226 242 245 261 265 254 265 277 267 311 293 292 288 287 296 301 306 308 304 299 291 286 286 289 289 290 291 279 270 275
207 220 233 244 238 229 228 236 281 315 313 267 250 243 243 250 254 254 252 268 261 185 241 276 280 278 278 280 282 285 289 295 295 293 293 293 289 285 283 284 285 282 282
213 222 223 229 235 234 233 238 240 254 284 300 288 260 255 248 246 245 229 95 330 268 259 268 275 278 278 278 280 282 286 291 291 293 294 296 299 295 288 283 280 281 281
217 222 218 222 231 241 246 247 250 256 259 272 293 293 267 251 246 245 204 222 250 262 267 270 273 277 279 278 276 278 281 283 287 289 291 297 301 300 298 295 292 289 280
243 243 228 221 233 244 250 248 249 250 254 256 258 263 282 64 295 280 247 244 249 260 268 272 275 275 272 270 272 276 283 286 287 284 295 301 300 294 294 296 295 295 289
245 252 250 240 240 241 242 243 244 245 249 254 253 241 214 220 233 245 251 246 245 253 258 265 271 272 269 270 271 275 281 286 288 288 292 295 297 297 295 293 292 289 289
243 242 243 248 255 256 254 249 247 250 255 258 266 259 224 221 228 232 241 248 249 253 249 246 256 263 264 265 264 267 273 281 287 289 286 286 290 293 295 295 296 293 291
275 281 282 279 267 262 260 256 253 252 253 252 253 257 245 239 241 240 240 242 242 247 247 244 253 263 265 259 257 256 265 275 281 284 286 288 289 289 289 293 297 296 297
268 270 277 284 280 270 267 269 267 264 260 257 253 252 252 251 254 255 251 245 240 244 243 241 246 255 264 268 266 265 271 282 285 275 275 279 284 284 282 285 289 291 292
267 265 269 271 270 268 265 266 271 272 270 268 267 262 256 250 251 253 252 248 246 246 247 246 247 253 259 264 269 278 291 291 284 286 276 275 278 281 284 284 284 288 288
260 261 264 266 265 262 258 262 272 275 271 270 269 266 260 255 253 253 248 245 248 250 252 249 248 253 260 260 267 281 285 289 295 295 283 278 282 284 287 285 289 289 289